Weather History for Eilat, Israel

Change the Weather History Date:

Sunday, March 3, 2013

  Actual Average Record
Temperature  
Mean Temperature 68 °F -  
Max Temperature 82 °F 78 °F 91 °F (2004)
Min Temperature 54 °F 59 °F 48 °F (2009)
Cooling Degree Days 3    
Growing Degree Days 18 (Base 50)    
Moisture  
Dew Point 46 °F    
Average Humidity 35    
Maximum Humidity 59    
Minimum Humidity 16    
Precipitation  
Precipitation 0.00 in 0.01 in - ()
Sea Level Pressure  
Sea Level Pressure 29.87 in    
Wind  
Wind Speed 6 mph ()    
Max Wind Speed 18 mph    
Max Gust Speed -    
Visibility 7.5 miles    
Events      
Averages and records for this station are not official NWS values.
T = Trace of Precipitation, MM = Missing Value Source: Averaged Metar Reports

Daily Weather History Graph

Daily Weather History Graph

Search for Another Location

Airport:

Trip Planner

Search our weather history database for the weather conditions in past years. The results will help you decide how hot, cold, wet, or windy it might be!

Date:

Astronomy

Mar. 03, 2013 Rise Set
Actual Time 6:03 AM IST 5:40 PM IST
Civil Twilight 5:39 AM IST 6:04 PM IST
Nautical Twilight 5:12 AM IST 6:32 PM IST
Astronomical Twilight 4:44 AM IST 6:59 PM IST
Moon 11:32 PM IST (3/3) 9:30 AM IST (3/3)
Length of Visible Light 12h 24m
Length of Day
11h 37m
Waning Gibbous, 67% of the Moon is Illuminated
Mar 3
Waning Gibbous
Mar 4
Last Quarter
Mar 11
New
Mar 19
First Quarter
Mar 27
Full

Hourly Weather History & Observations

Time (IST) Temp. Dew Point Humidity Pressure Visibility Wind Dir Wind Speed Gust Speed Precip Events Conditions
2:00 AM 63 °F 42 °F 34% 29.90 in 12 mi NNE 4.6 mph - -  
5:50 AM 57.2 °F 42.8 °F 59% 29.89 in 6.2 mi Variable 2.3 mph - N/A   Scattered Clouds
6:50 AM 59.0 °F 42.8 °F 55% 29.89 in 6.2 mi Variable 2.3 mph - N/A   Scattered Clouds
7:50 AM 60.8 °F 44.6 °F 55% 29.92 in 5.6 mi Variable 3.5 mph - N/A   Scattered Clouds
8:00 AM 63 °F 43 °F 36% 29.91 in - North 1.2 mph - -  
8:50 AM 68.0 °F 42.8 °F 40% 29.92 in 5.6 mi Variable 3.5 mph - N/A   Partly Cloudy
9:50 AM 75.2 °F 46.4 °F 36% 29.92 in - South 11.5 mph - N/A   Clear
10:50 AM 77.0 °F 46.4 °F 34% 29.92 in - South 9.2 mph - N/A   Clear
11:50 AM 78.8 °F 48.2 °F 34% 29.89 in 6.2 mi South 9.2 mph - N/A   Scattered Clouds
1:50 PM 82.4 °F 44.6 °F 26% 29.83 in 6.2 mi SSW 12.7 mph - N/A   Mostly Cloudy
2:00 PM 83 °F 45 °F 16% 29.81 in 16 mi SSW 5.8 mph - -   Clear
2:50 PM 80.6 °F 41.0 °F 24% 29.83 in 6.2 mi SW 11.5 mph - N/A   Mostly Cloudy
3:50 PM 84.2 °F 46.4 °F 27% 29.80 in 6.2 mi SSW 18.4 mph - N/A   Scattered Clouds
4:50 PM 82.4 °F 46.4 °F 28% 29.80 in 6.2 mi SW 13.8 mph - N/A   Partly Cloudy
5:50 PM 80.6 °F 46.4 °F 30% 29.83 in - SW 12.7 mph - N/A   Clear
6:50 PM 80.6 °F 46.4 °F 30% 29.83 in - SW 10.4 mph - N/A   Clear
7:50 PM 80.6 °F 48.2 °F 32% 29.86 in - WSW 6.9 mph - N/A   Clear
8:00 PM 78 °F 47 °F 23% 29.85 in - WSW 3.5 mph - -  
8:50 PM 78.8 °F 50.0 °F 36% 29.86 in - SW 6.9 mph - N/A   Clear
9:50 PM 78.8 °F 50.0 °F 36% 29.86 in - WSW 8.1 mph - N/A   Clear